Location: Newark
(35.4500°N, 118.9467°W)
Time: 01:40:36
(UTC+00:00)

LightSail 2 - Visible Passes

Search period start: 23 January 2020 00:00
Search period end: 02 February 2020 00:00
Orbit: 704 x 720 km, 24.0° (Epoch: 22 January)

Date Brightness Start Highest point End Pass type
(mag) Time Alt. Az. Time Alt. Az. Time Alt. Az.
23 Jan 6.9 02:40:01 10° SW 02:44:00 23° S 02:46:56 14° SE visible
23 Jan 8.0 04:25:35 10° SW 04:25:53 11° SW 04:25:53 11° SW visible
24 Jan 7.1 01:41:46 10° SW 01:45:43 22° S 01:49:42 10° SE visible
24 Jan 7.1 03:26:59 10° SW 03:30:36 19° S 03:31:12 19° S visible
25 Jan 7.1 02:28:29 10° SW 02:32:19 21° S 02:36:10 10° SE visible
25 Jan 7.9 04:14:56 10° SW 04:15:30 11° SW 04:15:30 11° SW visible
26 Jan 7.4 03:15:54 10° SW 03:18:52 15° SSW 03:20:54 13° SSE visible
27 Jan 7.4 02:17:09 10° SW 02:20:36 18° S 02:24:02 10° SSE visible
28 Jan 7.8 03:05:41 10° SW 03:07:05 11° SSW 03:08:28 10° S visible
29 Jan 7.7 02:06:14 10° SW 02:08:48 14° SSW 02:11:24 10° SSE visible
